User: anonymous   Login
Location: Unspecified
(0.0000°N, 0.0000°E)
Time: 13:10:16
(UTC+00:00)
Language:

DIAMOND BLUE - Orbit

View from above orbital plane
View from above orbital plane
View from above satellite
View from above satellite

Ground track
Ground track

The orbit data is extracted from the following two-line orbital elements,

1 42786U 17036X   18347.73262274  .00000856  00000-0  40687-4 0  9998
2 42786  97.3790  44.2607 0012605 160.8810 199.2902 15.21823763 81802
Epoch (UTC): 13 December 2018 17:34:58
Eccentricity: 0.0012605
inclination: 97.3790°
perigee height: 491 km
apogee height: 509 km
right ascension of ascending node: 44.2607°
argument of perigee: 160.8810°
revolutions per day: 15.21823763
mean anomaly at epoch: 199.2902°
orbit number at epoch: 8180

The dashed part of the orbit path shows where the satellite is in the earth's shadow,  

DLR